When you browse on this site, cookies collect data to enhance your experience and personalize the content and advertising you see.
Visit our Privacy Policy to learn more. By continuing to use the site, you agree to this use of cookies and data.
  • Em Portugal
  • Lista de países
  • Para 7 dias
  • Temperatura da água
  • Mapa do tempo
  • Widgets de tempo
  • user-avatar
    Iniciar Sessão

    Previsão horária em Shalashino

    Hoje, 3 Junho, Quarta-feira

    Tempo Temperatura Precipitação Vento Pressão Humidade
    00:00 +8°C° 0 mm 3 m/s 740 mmHg 97%
    01:00 +8°C° 0 mm 3 m/s 740 mmHg 97%
    02:00 +8°C° 0 mm 3 m/s 741 mmHg 98%
    03:00 +8°C° 0 mm 3 m/s 740 mmHg 97%
    04:00 +8°C° 0 mm 3 m/s 740 mmHg 97%
    05:00 +9°C° 0 mm 3 m/s 740 mmHg 97%
    06:00 +9°C° 0 mm 3 m/s 740 mmHg 95%
    07:00 +10°C° 0 mm 3 m/s 740 mmHg 94%
    08:00 +12°C° 0 mm 2 m/s 740 mmHg 92%
    09:00 +12°C° 0 mm 3 m/s 740 mmHg 87%
    10:00 +13°C° 0 mm 3 m/s 740 mmHg 82%
    11:00 +14°C° 0 mm 3 m/s 740 mmHg 78%
    12:00 +16°C° 0.1 mm 3 m/s 740 mmHg 74%
    13:00 +17°C° 0.1 mm 3 m/s 740 mmHg 70%
    14:00 +18°C° 0.1 mm 3 m/s 739 mmHg 67%
    15:00 +17°C° 0.5 mm 3 m/s 739 mmHg 70%
    16:00 +17°C° 0.5 mm 3 m/s 739 mmHg 74%
    17:00 +17°C° 0.5 mm 2 m/s 738 mmHg 77%
    18:00 +15°C° 0.4 mm 2 m/s 738 mmHg 82%
    19:00 +14°C° 0.4 mm 2 m/s 738 mmHg 86%
    20:00 +13°C° 0.4 mm 2 m/s 738 mmHg 91%
    21:00 +12°C° 0 mm 2 m/s 738 mmHg 92%
    22:00 +10°C° 0 mm 2 m/s 738 mmHg 94%
    23:00 +9°C° 0 mm 2 m/s 737 mmHg 95%

    Amanhã, 4 Junho, Quinta-feira

    Tempo Temperatura Precipitação Vento Pressão Humidade
    00:00 +10°C° 0 mm 1 m/s 737 mmHg 95%
    01:00 +9°C° 0 mm 1 m/s 737 mmHg 95%
    02:00 +9°C° 0 mm 1 m/s 737 mmHg 95%
    03:00 +9°C° 0 mm 1 m/s 737 mmHg 94%
    04:00 +9°C° 0 mm 0 m/s 736 mmHg 93%
    05:00 +9°C° 0 mm 0 m/s 736 mmHg 93%
    06:00 +12°C° 0 mm 1 m/s 736 mmHg 89%
    07:00 +13°C° 0 mm 1 m/s 736 mmHg 85%
    08:00 +15°C° 0 mm 2 m/s 736 mmHg 81%
    09:00 +15°C° 0.1 mm 2 m/s 736 mmHg 78%
    10:00 +16°C° 0.1 mm 3 m/s 736 mmHg 74%
    11:00 +17°C° 0.1 mm 3 m/s 735 mmHg 70%
    12:00 +17°C° 0.4 mm 3 m/s 735 mmHg 70%
    13:00 +17°C° 0.4 mm 3 m/s 735 mmHg 71%
    14:00 +18°C° 0.4 mm 3 m/s 735 mmHg 71%
    15:00 +17°C° 0.3 mm 3 m/s 735 mmHg 73%
    16:00 +17°C° 0.3 mm 4 m/s 735 mmHg 75%
    17:00 +17°C° 0.3 mm 4 m/s 735 mmHg 76%
    18:00 +14°C° 0.2 mm 3 m/s 735 mmHg 81%
    19:00 +13°C° 0.2 mm 3 m/s 735 mmHg 85%
    20:00 +12°C° 0.2 mm 3 m/s 735 mmHg 90%
    21:00 +11°C° 0 mm 3 m/s 735 mmHg 91%
    22:00 +10°C° 0 mm 3 m/s 735 mmHg 92%
    23:00 +10°C° 0 mm 3 m/s 735 mmHg 93%

    Depois de amanhã, 5 Junho, Sexta-feira

    Tempo Temperatura Precipitação Vento Pressão Humidade
    00:00 +9°C° 0 mm 3 m/s 735 mmHg 94%
    01:00 +9°C° 0 mm 3 m/s 735 mmHg 94%
    02:00 +8°C° 0 mm 3 m/s 735 mmHg 95%
    03:00 +9°C° 0 mm 3 m/s 735 mmHg 95%
    04:00 +9°C° 0 mm 3 m/s 735 mmHg 96%
    05:00 +9°C° 0 mm 3 m/s 735 mmHg 96%
    06:00 +10°C° 0.1 mm 3 m/s 735 mmHg 91%
    07:00 +12°C° 0.1 mm 3 m/s 736 mmHg 87%
    08:00 +14°C° 0.1 mm 3 m/s 736 mmHg 83%
    09:00 +15°C° 0.4 mm 4 m/s 736 mmHg 78%
    10:00 +17°C° 0.4 mm 4 m/s 736 mmHg 73%
    11:00 +18°C° 0.4 mm 4 m/s 736 mmHg 68%
    12:00 +19°C° 0.1 mm 4 m/s 736 mmHg 66%
    13:00 +19°C° 0.1 mm 3 m/s 736 mmHg 64%
    14:00 +20°C° 0.1 mm 3 m/s 736 mmHg 63%
    15:00 +20°C° 0 mm 3 m/s 736 mmHg 64%
    16:00 +20°C° 0 mm 3 m/s 736 mmHg 66%
    17:00 +20°C° 0 mm 3 m/s 736 mmHg 67%
    18:00 +19°C° 0 mm 3 m/s 736 mmHg 75%
    19:00 +18°C° 0 mm 3 m/s 736 mmHg 84%
    20:00 +16°C° 0 mm 3 m/s 737 mmHg 92%
    21:00 +16°C° 0 mm 3 m/s 737 mmHg 94%
    22:00 +14°C° 0 mm 3 m/s 737 mmHg 95%
    23:00 +14°C° 0 mm 4 m/s 737 mmHg 97%

    6 Junho, Sábado

    Tempo Temperatura Precipitação Vento Pressão Humidade
    00:00 +14°C° 0 mm 4 m/s 737 mmHg 97%
    01:00 +13°C° 0 mm 4 m/s 737 mmHg 97%
    02:00 +13°C° 0 mm 4 m/s 737 mmHg 98%
    03:00 +13°C° 0.1 mm 4 m/s 737 mmHg 97%
    04:00 +14°C° 0.1 mm 4 m/s 737 mmHg 96%
    05:00 +14°C° 0.1 mm 4 m/s 737 mmHg 96%
    06:00 +17°C° 0 mm 4 m/s 737 mmHg 92%
    07:00 +18°C° 0 mm 4 m/s 738 mmHg 89%
    08:00 +19°C° 0 mm 4 m/s 738 mmHg 86%
    09:00 +19°C° 0.1 mm 5 m/s 738 mmHg 87%
    10:00 +19°C° 0.1 mm 5 m/s 738 mmHg 88%
    11:00 +19°C° 0.1 mm 6 m/s 738 mmHg 89%
    12:00 +20°C° 0.2 mm 5 m/s 739 mmHg 88%
    13:00 +20°C° 0.2 mm 5 m/s 739 mmHg 87%
    14:00 +20°C° 0.2 mm 5 m/s 739 mmHg 86%
    15:00 +20°C° 0.3 mm 5 m/s 740 mmHg 85%
    16:00 +21°C° 0.3 mm 5 m/s 740 mmHg 84%
    17:00 +21°C° 0.3 mm 5 m/s 740 mmHg 82%
    18:00 +20°C° 0.1 mm 4 m/s 741 mmHg 85%
    19:00 +19°C° 0.1 mm 3 m/s 741 mmHg 88%
    20:00 +18°C° 0.1 mm 3 m/s 742 mmHg 91%
    21:00 +17°C° 0 mm 2 m/s 742 mmHg 92%
    22:00 +16°C° 0 mm 2 m/s 743 mmHg 92%
    23:00 +14°C° 0 mm 2 m/s 744 mmHg 92%

    7 Junho, Domingo

    Tempo Temperatura Precipitação Vento Pressão Humidade
    00:00 +14°C° 0 mm 2 m/s 744 mmHg 92%
    01:00 +13°C° 0 mm 1 m/s 744 mmHg 92%
    02:00 +13°C° 0 mm 1 m/s 745 mmHg 92%
    03:00 +13°C° 0 mm 1 m/s 745 mmHg 91%
    04:00 +14°C° 0 mm 1 m/s 745 mmHg 91%
    05:00 +14°C° 0 mm 1 m/s 746 mmHg 91%
    06:00 +16°C° 0 mm 2 m/s 746 mmHg 87%
    07:00 +18°C° 0 mm 2 m/s 746 mmHg 82%
    08:00 +20°C° 0 mm 2 m/s 746 mmHg 78%
    09:00 +21°C° 0.1 mm 3 m/s 746 mmHg 75%
    10:00 +22°C° 0.1 mm 3 m/s 746 mmHg 72%
    11:00 +23°C° 0.1 mm 4 m/s 746 mmHg 69%
    12:00 +23°C° 0.7 mm 4 m/s 746 mmHg 72%
    13:00 +23°C° 0.7 mm 4 m/s 746 mmHg 74%
    14:00 +25°C° 0.7 mm 5 m/s 745 mmHg 77%
    15:00 +23°C° 0.8 mm 5 m/s 745 mmHg 79%
    16:00 +23°C° 0.8 mm 5 m/s 745 mmHg 82%
    17:00 +23°C° 0.8 mm 5 m/s 745 mmHg 84%
    18:00 +22°C° 1.6 mm 4 m/s 745 mmHg 86%
    19:00 +21°C° 1.6 mm 4 m/s 745 mmHg 88%
    20:00 +20°C° 1.6 mm 4 m/s 744 mmHg 90%
    21:00 +19°C° 0.2 mm 4 m/s 745 mmHg 90%
    22:00 +18°C° 0.2 mm 4 m/s 745 mmHg 91%
    23:00 +18°C° 0.2 mm 4 m/s 745 mmHg 92%

    8 Junho, Segunda-feira

    Tempo Temperatura Precipitação Vento Pressão Humidade
    00:00 +17°C° 0.2 mm 4 m/s 745 mmHg 92%
    01:00 +17°C° 0.2 mm 4 m/s 744 mmHg 93%
    02:00 +15°C° 0.2 mm 4 m/s 744 mmHg 93%
    03:00 +16°C° 0.4 mm 5 m/s 744 mmHg 94%
    04:00 +16°C° 0.4 mm 5 m/s 744 mmHg 94%
    05:00 +17°C° 0.4 mm 5 m/s 744 mmHg 94%
    06:00 +17°C° 0 mm 5 m/s 744 mmHg 93%
    07:00 +19°C° 0 mm 5 m/s 744 mmHg 92%
    08:00 +20°C° 0 mm 6 m/s 745 mmHg 91%
    09:00 +21°C° 0 mm 6 m/s 745 mmHg 86%
    10:00 +23°C° 0 mm 6 m/s 745 mmHg 81%
    11:00 +24°C° 0 mm 6 m/s 745 mmHg 76%
    12:00 +25°C° 1 mm 5 m/s 745 mmHg 76%
    13:00 +26°C° 1 mm 5 m/s 745 mmHg 76%
    14:00 +26°C° 1 mm 5 m/s 745 mmHg 76%
    15:00 +26°C° 0.7 mm 5 m/s 745 mmHg 78%
    16:00 +26°C° 0.7 mm 4 m/s 745 mmHg 79%
    17:00 +26°C° 0.7 mm 4 m/s 745 mmHg 81%
    18:00 +25°C° 0.6 mm 4 m/s 745 mmHg 84%
    19:00 +22°C° 0.6 mm 3 m/s 745 mmHg 87%
    20:00 +21°C° 0.6 mm 3 m/s 745 mmHg 90%
    21:00 +21°C° 0.8 mm 3 m/s 746 mmHg 92%
    22:00 +20°C° 0.8 mm 3 m/s 746 mmHg 93%
    23:00 +19°C° 0.8 mm 3 m/s 746 mmHg 95%
    Mostrar mais